Regional Weather Roundup
Issued by NWS Jackson, KY

Home | Current Version | Previous Version | Text Only | Print | Product List | Glossary Off
Versions: 1 2 3 4 5 6 7 8 9 10 11 12 13 14 15 16 17 18 19 20 21 22 23 24 25 26 27 28

000
ASUS43 KJKL 280210
RWRJKL

EAST KENTUCKY HOURLY WEATHER ROUNDUP
NATIONAL WEATHER SERVICE JACKSON KY
1000 PM EDT SAT MAY 27 2017

NOTE: "FAIR" INDICATES FEW OR NO CLOUDS BELOW 12,000 FEET WITH
NO SIGNIFICANT WEATHER AND/OR OBSTRUCTIONS TO VISIBILITY.

* THESE REPORTS ARE NOT UNDER NWS QUALITY CONTROL AND MAY NOT
  REPORT WEATHER SUCH AS PRECIPITATION AND FOG.

KYZ079-080-083-085-087-088-110-112-115-119-120-280300
...EASTERN KENTUCKY...

CITY           SKY/WX    TMP DP  RH WIND       PRES   REMARKS
JACKSON        CLOUDY    63  62  97 CALM      29.92R FOG
LONDON         RAIN      65  61  87 NW10G20   29.94R
SOMERSET*      RAIN      61  61 100 W3        29.98F
MONTICELLO*    RAIN      64  62  93 W6G24     30.03S
WILLIAMSBURG*  CLOUDY    63  63 100 W6        30.00R
MIDDLESBORO*   CLOUDY    67  66  99 N16G31    29.99R
HARLAN APT*    CLOUDY    63  61  94 W3        29.94F
PIKE CO APT*     N/A     66  66 100 SE5       29.91F
BIG SANDY APT* CLOUDY    68  64  86 S6        29.90S
MOREHEAD APT*  CLOUDY    68  64  88 CALM      29.89R
ASHLAND*       CLOUDY    66  64  94 CALM      29.84S
$$

KYZ035-036-041-042-044-050-067-078-099-280300
...CENTRAL KENTUCKY...

CITY           SKY/WX    TMP DP  RH WIND       PRES   REMARKS
MT STERLING*   CLOUDY    68  66  94 SW7       29.90R
FLEMING/MASON* CLOUDY    68  66  93 SW5       29.87S
DANVILLE*      RAIN      63  61  94 SW10G20   29.94S
LEXINGTON      CLOUDY    69  63  81 W13       29.93R
FRANKFORT      LGT RAIN  67  62  84 W6G25     29.89R
LOUISVILLE     CLOUDY    68  63  84 CALM      29.85F
LEBANON*       MOCLDY    64  64 100 S13       29.92F
GLASGOW*       CLOUDY    65  65 100 W3        29.98R
BOWLING GREEN  LGT RAIN  67  64  90 CALM      29.97R
$$

KYZ091>093-OHZ055-061-077-WVZ005-015-034-035-042-280300
...SOUTHERN OHIO/WEST VIRGINIA...

CITY           SKY/WX    TMP DP  RH WIND       PRES   REMARKS
COVINGTON      CLOUDY    74  68  81 S7        29.83F THUNDER
COLUMBUS       CLOUDY    72  66  81 E7        29.85R
DAYTON         CLOUDY    72  65  78 N5        29.86R
WILMINGTON     CLOUDY    71  68  90 NE5       29.84R
HUNTINGTON     CLOUDY    67  63  87 S3        29.86R
CHARLESTON     CLOUDY    74  65  73 SW7       29.85S
PINEVILLE*     CLOUDY    67  65  95 MISG      29.98S FOG
BECKLEY        PTCLDY    67  63  87 S6        29.95F
BLUEFIELD      CLOUDY    62  60  93 W7        30.00R
LOGAN CO APT*    N/A     70  68  94 SW6       29.91R
$$

VAZ002-007-008-TNZ017-027-036-066-071-280300
...SOUTHWEST VIRGINIA/EAST TENNESSEE...

CITY           SKY/WX    TMP DP  RH WIND       PRES   REMARKS
WISE*          CLOUDY    63  63 100 CALM      30.00F
JONESVILLE*      N/A     66  63  88 CALM      29.94F THUNDER
ABINGDON*      LGT RAIN  63  62  96 CALM      29.99S
BRISTOL        TSTM      65  62  90 N17G23    30.00R FOG
MORRISTOWN*    CLOUDY    75  68  78 SW6       29.90F
SEVIERVILLE*   CLEAR     73  66  78 CALM      29.90R
KNOXVILLE      CLOUDY    76  66  71 S9        29.89R
LAFOLLETTE*    CLOUDY    72  70  94 VRB5      29.95R FOG
OAK RIDGE      CLOUDY    75  69  81 CALM      29.90S
CROSSVILLE     RAIN      62  60  93 N13G31    30.06R FOG
NASHVILLE      TSTM      66  63  90 N6        29.97R
$$

...KEY TO REMARKS...
VSB - VISIBILITY IN MILES
WCI - WIND CHILL INDEX
HX  - HEAT INDEX

$$




USA.gov is the U.S. government's official web portal to all federal, state and local government web resources and services.